{"data":{"norad_id":55310,"epoch":"2026-05-25T03:40:06.609792Z","epoch_age_seconds":61635,"freshness":"FRESH","line1":"1 55310U 23010AT  26145.15285428  .00000108  00000+0  16835-4 0  9998","line2":"2 55310  69.9985 171.7469 0003694 267.5381  92.5355 14.98329301185228","mean_motion":14.98329301,"eccentricity":0.0003694,"inclination_deg":69.9985,"raan_deg":171.7469,"arg_perigee_deg":267.5381,"mean_anomaly_deg":92.5355,"bstar":1.6835e-5,"rev_number":18522,"period_min":96.107043961493,"perigee_km":569.49065049269,"apogee_km":574.62545459751,"semimajor_km":6950.1950525451,"source":"CELESTRAK","updated_at":"2026-05-25T13:38:17.757193Z"}}